LUCKY-7 (44406 NORAD) Tracking and Keplerian Element Data

This shows tracking and keplerian element data for the satellite.

Feedback or suggestion? Click here.




ElementValue
Catalog44406
NameLUCKY-7
Epoch Orbit1610
Epoch Day293.12464267
Epoch Year2019
RAAN253.0757
Inclination97.5044
Eccentricity0.0023429
Argument of Perigee234.971
Mean Anonmoly124.9322
Mean Motion15.11910446
Decay Rate5.39E-06
L11 44406U 19038W 19293.12464267 .00000539 00000-0 35090-4 0 9993
L22 44406 97.5044 253.0757 0023429 234.9710 124.9322 15.11910446 16107

Live tracking and technical data element details for LUCKY-7 (NORAD 44406). LUCKY-7 can be tracked NOW for your location showing map with azimuth and elevation plus other details from your city location.

Track the satellite on the map from your city or location and see movement details for azimuth, elevation, latitude, longitude, range, height, and movement on the map or in text.







IsCatalogInMostPopularTable: catalog: 44406, numindb: 15
Update: records affected: 1



GetName: 44406 LUCKY-7

Hit Count: updated at: Tue, 22 Oct 2019 23:58:16 GMT